DateTimeUTC,F1_A11,F1_S11,BsB_S11,BsG_S11,BsR_S11,BbsB_S11,BbsG_S11,BbsR_S11,BaB_A11,BaG_A11,BaR_A11,Tu_S11,T_S11,Uu_S11,U_S11,P_S11,T1_A11
2021-11-02T06:00:00Z,00000200,21000000,,,,,,,0000.08,0000.15,0000.23,18.4,25.4,,00.0,0648.3,31.0
2021-11-02T06:01:00Z,00000200,21000000,,,,,,,0000.16,0000.22,-000.08,18.3,25.3,,00.0,0648.3,31.0
2021-11-02T06:02:00Z,00000200,21000000,,,,,,,0000.08,-000.03,0000.03,18.3,25.3,,00.0,0648.3,31.0
2021-11-02T06:03:00Z,00000200,61000000,,,,,,,0000.31,0000.19,0000.36,18.3,25.3,,00.0,0648.3,31.0
2021-11-02T06:04:00Z,00000200,41000000,0001.36,-000.02,0000.40,0000.26,-000.12,0000.13,0000.33,0000.10,-000.00,18.2,25.0,,00.0,0649.1,31.0
2021-11-02T06:05:00Z,00000200,01000000,0000.11,0000.10,-000.02,0000.02,0000.05,0000.03,-000.13,-000.23,0000.10,18.2,25.0,,00.0,0649.2,31.0
2021-11-02T06:06:00Z,00000200,01000000,0000.03,-000.14,0000.43,0000.06,0000.10,0000.14,0000.09,0000.64,0000.09,18.3,25.0,,00.0,0649.2,31.0
2021-11-02T06:07:00Z,00000200,01000000,0000.44,0000.19,0000.18,-000.35,0000.06,0000.25,0000.18,-000.08,0000.16,18.3,25.0,,00.0,0649.2,31.1
2021-11-02T06:08:00Z,00000200,01000000,0000.39,-000.17,0000.33,0000.27,-000.24,0000.22,-000.10,0000.02,-000.04,18.4,25.0,,00.0,0649.2,31.1
2021-11-02T06:09:00Z,00000200,01000000,0000.43,0000.08,0000.32,-000.08,-000.10,0000.43,-000.11,0000.40,0000.02,18.5,25.0,,00.0,0649.2,31.1
2021-11-02T06:10:00Z,00000200,01000000,0000.83,-000.10,0000.28,0000.01,-000.04,0000.13,0000.37,-000.10,0000.11,18.5,25.0,,00.0,0649.2,31.1
2021-11-02T06:11:00Z,00000200,01000000,0000.54,0000.13,0000.21,-000.26,-000.12,0000.48,0000.11,0000.11,0000.04,18.6,25.1,,00.0,0649.2,31.1
2021-11-02T06:12:00Z,00000200,01000000,-000.21,-000.14,0000.20,-000.28,0000.12,0000.20,0000.06,0000.20,0000.17,18.7,25.1,,00.0,0649.2,31.1
2021-11-02T06:13:00Z,00000200,01000000,0000.11,0000.03,0000.32,-000.08,-000.17,0000.23,0000.36,0000.19,0000.29,18.7,25.1,,00.0,0649.2,31.1
2021-11-02T06:14:00Z,00000200,01000000,0000.29,-000.12,0000.23,-000.43,0000.30,0000.01,-000.43,0000.02,-000.04,18.8,25.2,,00.0,0649.2,31.1
2021-11-02T06:15:00Z,00000200,01000000,0000.34,0000.17,0000.45,-000.29,0000.35,0000.41,0000.25,0000.29,-000.10,18.8,25.2,,00.0,0649.2,31.1
2021-11-02T06:16:00Z,00000200,01000000,0000.29,0000.57,0000.12,0000.08,0000.33,0000.38,0000.27,-000.20,0000.21,18.8,25.2,,00.0,0649.2,31.1
2021-11-02T06:17:00Z,00000200,01000000,-000.51,-000.13,0000.37,-000.08,-000.08,0000.26,-000.10,0000.11,-000.29,18.7,25.2,,00.0,0649.2,31.1
2021-11-02T06:18:00Z,00000200,01000000,0000.18,-000.16,-000.01,0000.15,0000.03,0000.19,-000.06,-000.17,0000.19,18.6,25.1,,00.0,0649.2,31.1
2021-11-02T06:19:00Z,00000200,01000000,0000.42,-000.15,0000.12,0000.02,0000.00,0000.34,0000.47,0000.13,0000.27,18.6,25.0,,00.0,0649.2,31.1
2021-11-02T06:20:00Z,00000200,01000000,0000.01,-000.39,0000.19,-000.11,0000.34,0000.62,-000.13,0000.28,0000.12,18.6,25.1,,00.0,0649.2,31.1
2021-11-02T06:21:00Z,00000200,01000000,0000.42,-000.07,-000.04,-000.20,-000.25,0000.17,-000.00,-000.06,0000.09,18.6,25.1,,00.0,0649.2,31.1
2021-11-02T06:22:00Z,00000200,01000000,0000.41,-000.17,0000.09,-000.04,-000.13,0000.29,0000.24,0000.40,-000.09,18.7,25.1,,00.0,0649.2,31.1
2021-11-02T06:23:00Z,00000200,01000000,0000.15,0000.12,-000.13,0000.00,0000.06,0000.10,0000.03,-000.33,0000.39,18.7,25.1,,00.0,0649.2,31.1
2021-11-02T06:24:00Z,00000200,01000000,-000.08,0000.30,0000.44,-000.07,0000.06,0000.43,0000.47,0000.41,-000.06,18.8,25.2,,00.0,0649.1,31.1
2021-11-02T06:25:00Z,00000200,01000000,0000.19,0000.03,0000.07,0000.04,0000.33,0000.19,-000.05,-000.01,-000.01,18.8,25.2,,00.0,0649.2,31.1
2021-11-02T06:26:00Z,00000200,01000000,0000.89,-000.17,-000.32,-000.33,0000.05,0000.09,0000.03,0000.43,0000.35,18.9,25.2,,00.0,0649.2,31.1
2021-11-02T06:27:00Z,00000200,01000000,0000.16,0000.13,0000.36,-000.10,0000.02,0000.10,0000.03,-000.16,-000.42,18.9,25.2,,00.0,0649.1,31.1
2021-11-02T06:28:00Z,00000200,01000000,-000.05,-000.08,0000.16,-000.44,0000.13,0000.17,-000.38,-000.06,0000.15,18.9,25.2,,00.0,0649.1,31.1
2021-11-02T06:29:00Z,00000200,01000000,0000.77,-000.02,0000.17,0000.10,0000.40,0000.32,0000.15,0000.09,0000.01,18.8,25.2,,00.0,0649.1,31.1
2021-11-02T06:30:00Z,00000200,01000000,0000.79,0000.01,0000.13,-000.73,-000.02,-000.18,0000.04,-000.06,-000.14,18.8,25.2,,00.0,0649.1,31.1
2021-11-02T06:31:00Z,00000200,01000000,0000.48,-000.16,0000.11,0000.16,-000.15,0000.32,-000.00,-000.07,-000.07,18.7,25.1,,00.0,0649.1,31.1
2021-11-02T06:32:00Z,00000200,01000000,0000.16,-000.23,0000.20,0000.37,0000.21,0000.19,0000.32,-000.21,0000.16,18.6,25.1,,00.0,0649.1,31.0
2021-11-02T06:33:00Z,00000200,01000000,0000.21,-000.30,0000.15,-000.10,0000.17,0000.25,-000.32,0000.10,-000.05,18.5,25.1,,00.0,0649.1,31.0
2021-11-02T06:34:00Z,00000200,01000000,0000.44,-000.40,0000.18,0000.12,0000.28,0000.35,0000.09,-000.06,0000.03,18.5,25.0,,00.0,0649.1,31.0
2021-11-02T06:35:00Z,00000200,01000000,0000.76,-000.17,0000.03,-000.23,0000.08,0000.35,-000.04,-000.35,-000.19,18.5,25.0,,00.0,0649.1,31.1
2021-11-02T06:36:00Z,00000200,01000000,-000.42,-000.19,0000.10,0000.09,-000.02,0000.49,0000.12,0000.04,0000.17,18.5,25.1,,00.0,0649.1,31.1
2021-11-02T06:37:00Z,00000200,01000000,0000.10,-000.08,0000.64,0000.51,-000.07,0000.35,-000.04,0000.28,-000.02,18.6,25.1,,00.0,0649.1,31.1
2021-11-02T06:38:00Z,00000200,01000000,0000.54,0000.08,0000.15,-000.27,-000.03,0000.07,0000.18,0000.23,0000.47,18.7,25.1,,00.0,0649.1,31.1
2021-11-02T06:39:00Z,00000200,01000000,0000.39,0000.12,0000.46,-000.61,0000.15,0000.38,0000.08,-000.02,0000.22,18.7,25.1,,00.0,0649.1,31.1
2021-11-02T06:40:00Z,00000200,01000000,0000.27,0000.02,0000.22,0000.16,0000.11,0000.54,0000.31,0000.10,-000.57,18.8,25.1,,00.0,0649.1,31.1
2021-11-02T06:41:00Z,00000200,01000000,-000.43,-000.20,0000.34,0000.23,-000.04,0000.30,-000.24,0000.15,0000.25,18.9,25.2,,00.0,0649.1,31.1
2021-11-02T06:42:00Z,00000200,01000000,0000.27,-000.24,0000.13,0000.40,0000.06,0000.12,0000.27,0000.20,0000.30,18.9,25.2,,00.0,0649.1,31.1
2021-11-02T06:43:00Z,00000200,01000000,0000.58,-000.16,-000.00,-000.18,-000.05,-000.14,-000.03,0000.08,-000.20,19.0,25.3,,00.0,0649.1,31.1
2021-11-02T06:44:00Z,00000200,01000000,0000.39,-000.23,0000.19,-000.15,0000.20,0000.23,0000.12,0000.22,0000.26,19.0,25.3,,00.0,0649.1,31.1
2021-11-02T06:45:00Z,00000200,01000000,0000.19,0000.08,0000.25,-000.64,0000.12,0000.10,-000.01,-000.30,-000.05,18.9,25.3,,00.0,0649.0,31.1
2021-11-02T06:46:00Z,00000200,01000000,0000.37,-000.26,0000.31,0000.09,0000.07,0000.17,0000.21,0000.49,-000.26,18.9,25.2,,00.0,0649.0,31.1
2021-11-02T06:47:00Z,00000200,01000000,0000.69,-000.13,0000.21,0000.16,0000.07,0000.42,0000.00,-000.23,0000.19,18.8,25.2,,00.0,0649.0,31.1
2021-11-02T06:48:00Z,00000200,01000000,0000.87,0000.30,0000.35,-000.01,0000.23,0000.37,0000.34,0000.16,0000.32,18.7,25.2,,00.0,0649.0,31.1
2021-11-02T06:49:00Z,00000200,01000000,-000.25,0000.01,-000.03,-000.37,0000.13,0000.09,0000.03,0000.04,-000.02,18.7,25.1,,00.0,0648.9,31.1
2021-11-02T06:50:00Z,00000200,01000000,0000.26,-000.02,0000.11,-000.51,-000.02,0000.23,0000.14,0000.02,0000.23,18.7,25.1,,00.0,0648.9,31.1
2021-11-02T06:51:00Z,00000200,01000000,0000.65,0000.25,0000.36,0000.40,0000.17,0000.46,0000.06,0000.41,-000.24,18.7,25.1,,00.0,0649.0,31.1
2021-11-02T06:52:00Z,00000200,01000000,0000.28,0000.23,0000.44,-000.52,0000.04,0000.50,-000.06,0000.24,0000.32,18.8,25.2,,00.0,0649.0,31.1
2021-11-02T06:53:00Z,00000200,01000000,-000.12,-000.06,-000.00,-000.45,-000.06,-000.05,0000.27,0000.03,0000.12,18.8,25.2,,00.0,0648.9,31.1
2021-11-02T06:54:00Z,00000200,01000000,0000.49,-000.04,0000.35,-000.07,0000.48,0000.36,0000.18,-000.15,-000.06,18.9,25.2,,00.0,0648.9,31.1
2021-11-02T06:55:00Z,00000200,01000000,-000.16,-000.11,0000.20,-000.41,0000.13,0000.26,0000.31,0000.30,0000.47,18.9,25.2,,00.0,0648.9,31.1
2021-11-02T06:56:00Z,00000200,01000000,0000.07,0000.26,0000.26,-000.33,-000.03,0000.40,-000.25,-000.14,-000.03,19.0,25.3,,00.0,0649.0,31.1
2021-11-02T06:57:00Z,00000200,41000000,,,,,,,-000.43,-000.51,-000.62,19.0,25.3,,00.0,0649.0,31.1
2021-11-02T06:58:00Z,00000200,61000000,,,,,,,-000.05,0000.25,-000.08,18.8,25.4,,00.0,0648.0,31.1
2021-11-02T06:59:00Z,00000200,21000000,,,,,,,0000.11,-000.11,0000.17,18.8,25.5,,00.0,0648.0,31.1
